Wind_Speed
39 38 37 34 33 33 34 33 32 31 30 28 27 26 25 24 24 22 21 21 20 19 18 18 18 17 16 15 14 14 14 13 13 13 14 15 15 14 13 12 11 9
40 40 39 36 34 34 34 34 33 33 32 30 28 27 25 24 25 24 23 22 22 21 19 19 19 19 18 16 15 14 15 15 14 13 14 15 16 16 16 14 12 10
40 40 40 39 37 35 35 35 34 34 33 31 29 28 27 26 26 26 25 24 23 22 21 19 20 21 20 18 16 15 15 17 16 14 14 14 14 16 17 16 14 12
41 41 41 41 39 37 36 35 35 36 35 32 31 30 29 28 27 27 26 26 25 24 22 21 20 21 21 19 18 17 16 17 17 15 15 14 14 14 16 16 15 13
42 43 42 42 40 38 36 35 36 37 36 34 32 31 30 30 29 28 28 27 27 26 24 22 21 21 22 21 20 19 18 17 17 17 16 15 14 14 15 16 16 15
42 42 42 41 40 39 37 37 38 38 37 35 33 32 31 31 30 30 29 28 28 27 26 24 23 22 22 22 22 21 20 18 18 18 18 17 16 15 15 17 18 18
41 41 40 39 39 39 38 39 39 39 38 37 35 34 33 32 32 31 30 29 28 27 27 26 25 24 24 23 23 23 22 20 19 20 21 20 19 18 17 18 19 20
41 41 41 39 38 38 39 39 39 40 40 38 37 36 34 33 33 32 31 30 29 28 27 26 25 25 25 25 25 25 24 23 22 22 23 23 22 22 21 20 19 20
40 40 40 39 38 38 38 39 39 40 39 38 38 37 35 34 34 33 32 31 30 29 28 27 26 26 26 26 27 27 27 27 26 25 25 25 25 25 24 23 22 22
39 39 38 38 39 39 39 39 39 39 38 38 38 37 36 35 34 34 33 33 32 31 30 29 28 28 28 28 29 29 29 29 29 29 28 28 28 29 28 27 26 25
39 38 38 38 40 40 40 40 39 38 38 38 38 37 36 36 35 35 34 34 34 34 33 32 31 31 30 30 31 31 31 31 31 31 31 30 30 30 30 30 29 29
39 39 39 40 41 41 41 41 39 38 37 37 37 37 36 36 36 36 36 36 36 35 35 34 33 32 32 32 32 32 32 32 31 31 31 31 31 30 30 30 30 30
39 40 40 40 40 41 41 40 40 39 38 37 37 36 36 35 35 36 37 37 37 37 36 36 34 34 34 33 33 33 33 33 32 32 31 31 31 31 30 30 30 30
40 39 40 40 40 40 39 39 39 39 39 38 37 36 36 36 35 35 36 37 37 37 37 36 35 35 34 34 34 34 33 33 33 33 32 31 31 31 31 31 31 31
39 38 39 39 39 39 39 40 39 39 39 38 37 37 37 37 36 35 35 35 36 36 36 36 36 36 36 35 35 35 34 34 34 34 33 33 32 32 32 32 32 32
38 38 38 38 39 39 40 40 39 39 38 38 38 38 38 37 36 35 35 35 35 35 35 35 36 37 37 37 36 36 35 35 35 35 34 33 33 32 32 33 33 33
37 37 37 38 39 39 39 39 39 38 37 37 38 38 38 37 36 36 36 35 35 35 35 35 36 37 37 37 37 37 36 36 35 35 35 34 34 33 33 34 34 34
37 37 37 37 38 39 39 39 38 37 37 37 37 37 37 37 37 37 37 36 35 35 35 36 37 38 38 38 38 38 38 37 36 36 35 34 34 34 34 35 34 34
37 37 37 37 38 38 38 37 36 37 37 37 37 37 37 37 37 38 37 37 36 35 36 36 37 38 38 38 39 39 39 38 37 36 36 35 35 35 35 35 34 34
37 37 37 38 38 38 37 37 36 37 37 38 37 36 36 37 38 38 38 38 37 37 37 37 37 38 39 39 40 40 40 39 38 37 36 36 36 36 35 35 35 34
38 38 37 37 37 37 37 37 37 37 37 37 36 36 37 38 38 38 38 38 38 38 37 37 38 39 39 39 40 40 40 40 39 38 37 36 37 36 36 36 36 36
35 36 36 36 36 36 36 36 37 37 38 37 36 36 37 37 37 38 38 38 38 37 37 37 38 39 39 39 40 40 40 39 39 39 38 37 37 37 37 38 38 37
30 32 34 35 35 35 35 36 37 37 38 38 36 36 36 36 37 37 38 38 38 38 38 38 39 39 39 40 40 40 39 39 39 39 38 38 38 38 38 38 39 38
25 30 32 33 34 36 36 37 38 38 39 38 38 37 37 37 37 37 37 38 39 39 39 40 40 40 40 40 40 40 39 40 40 39 38 38 38 39 39 38 39 39
21 27 31 33 35 36 37 38 39 39 39 39 38 38 38 38 37 37 37 38 39 39 40 40 41 40 40 41 41 40 40 40 39 38 37 37 38 38 38 38 38 39
17 23 31 35 35 37 38 39 39 39 38 38 37 37 37 37 36 37 37 37 38 38 39 40 41 41 40 41 42 41 40 40 39 38 37 37 37 37 37 37 38 38
Wind_Direction
210 212 213 215 215 215 216 216 215 214 215 216 216 217 216 216 217 217 218 221 223 226 227 225 223 222 224 227 231 234 237 237 235 230 230 234 238 241 241 241 247 257
210 212 213 216 218 217 217 218 218 215 215 217 219 219 217 217 218 217 219 221 224 228 229 227 224 222 225 228 234 241 243 242 238 235 235 238 241 243 242 242 246 254
209 211 212 215 218 219 219 220 220 219 218 220 222 223 222 220 219 219 220 223 226 229 230 230 227 224 225 228 236 244 244 241 239 236 239 242 243 243 243 242 244 248
208 210 212 214 218 220 221 221 222 220 220 223 226 226 226 224 223 221 221 224 228 230 232 232 230 227 226 228 237 243 242 242 242 238 240 243 241 243 243 241 240 244
209 210 212 214 217 220 221 222 222 221 221 225 228 228 228 227 225 224 223 225 227 230 232 233 233 230 228 230 238 244 243 244 242 236 238 241 239 240 240 237 238 244
209 211 212 214 215 218 220 221 221 221 222 225 227 228 228 227 227 226 225 225 227 230 231 233 234 231 229 232 238 243 244 244 241 234 234 239 241 241 239 237 240 245
209 211 213 214 215 217 220 221 221 221 223 225 226 228 228 228 228 227 227 227 227 229 231 232 234 232 230 232 236 240 242 242 240 236 235 239 242 243 242 240 242 245
209 211 213 215 215 216 219 220 221 221 223 224 225 227 228 229 229 229 229 229 229 231 231 232 234 235 234 234 235 238 240 241 240 238 238 239 241 243 245 244 244 245
210 211 213 215 216 218 219 220 221 222 222 223 225 226 227 228 229 230 231 231 231 233 234 234 235 237 237 237 237 237 238 240 240 240 241 242 242 244 247 248 247 248
211 212 212 214 216 219 221 221 222 222 223 224 225 226 227 228 230 232 232 231 232 233 235 237 238 238 239 240 240 240 240 241 242 243 243 245 246 247 249 249 249 250
211 212 212 214 217 219 222 223 223 224 225 225 226 227 229 231 232 232 232 231 232 233 235 238 240 241 240 240 241 242 242 243 244 245 246 247 248 249 249 250 250 251
211 212 213 215 217 219 221 223 224 225 226 227 229 230 231 232 233 233 232 231 233 234 236 238 240 241 241 242 242 242 242 243 245 246 248 249 250 249 248 249 250 251
211 212 213 215 217 219 221 223 224 225 227 228 230 231 232 232 233 233 233 233 234 235 236 238 239 240 241 242 242 242 241 242 244 246 249 250 251 250 248 248 249 250
213 213 214 216 218 220 221 223 224 225 227 228 229 230 231 232 232 233 234 235 235 235 236 237 238 239 239 240 241 241 241 242 243 245 248 250 251 252 250 250 250 251
213 214 215 216 218 219 221 222 223 225 226 227 228 229 231 232 232 233 234 235 235 236 236 235 235 237 238 239 239 239 239 240 242 243 245 248 250 251 252 252 252 253
213 214 215 216 217 218 220 221 222 224 225 226 227 228 230 231 231 231 232 234 235 235 234 234 234 235 237 239 239 239 239 239 240 242 244 246 248 250 251 253 254 255
213 213 214 216 217 218 220 221 222 222 223 225 226 228 229 230 230 230 231 232 234 234 234 233 233 234 236 238 240 240 239 237 238 241 242 243 245 247 249 252 254 256
212 213 214 216 217 219 220 221 221 221 222 224 225 227 228 228 229 230 230 231 232 233 234 234 234 235 236 238 239 240 239 238 237 239 240 242 244 246 248 251 253 255
212 213 214 216 217 219 220 220 220 221 221 222 224 226 227 227 228 229 230 231 230 231 233 234 236 237 237 238 239 240 240 238 236 237 239 242 244 246 248 250 251 254
212 212 213 216 218 219 219 219 220 221 222 223 224 224 225 226 227 228 229 230 230 231 233 234 236 238 238 239 239 240 240 238 235 236 238 240 244 247 249 250 252 253
211 212 213 215 217 217 218 218 219 221 222 223 223 223 224 225 227 228 229 230 231 231 232 234 236 238 239 239 240 240 240 238 235 234 235 238 242 245 248 251 253 253
212 211 212 215 216 216 217 218 219 220 221 222 223 223 225 226 226 227 228 229 230 231 231 234 236 237 238 239 241 241 239 237 235 233 233 236 239 243 246 249 251 252
221 215 213 214 214 215 217 218 219 220 221 221 221 222 224 225 226 227 228 228 229 229 230 232 235 237 238 239 240 240 238 235 233 232 232 234 238 241 244 247 249 250
231 224 218 216 215 216 217 219 219 220 221 220 219 220 222 224 225 226 227 228 228 229 229 231 234 236 237 238 240 239 237 234 232 231 231 233 237 240 242 245 247 249
240 235 227 221 219 219 219 219 220 220 221 220 219 220 222 223 224 224 226 227 228 229 230 231 234 236 236 237 239 239 237 234 231 229 229 232 235 239 241 243 245 247
233 243 235 227 224 222 221 221 221 221 220 219 218 220 221 223 223 223 224 227 227 229 230 230 232 234 235 237 238 238 237 234 229 227 228 232 235 237 240 242 244 245
Height
824 827 829 831 832 834 835 836 837 838 840 841 842 843 845 846 848 849 851 852 853 854 855 856 857 858 859 860 861 862 863 863 864 864 865 866 866 867 867 868 868 869
822 825 827 829 831 833 834 835 837 838 839 840 841 843 845 846 848 849 850 851 852 853 855 856 857 858 859 860 861 862 862 863 863 864 864 865 866 866 867 867 868 869
820 822 825 827 828 830 832 834 836 837 838 840 841 843 844 845 847 848 849 851 851 852 854 855 856 857 858 859 860 861 862 862 863 863 864 864 865 865 866 867 868 868
817 819 822 824 826 828 831 832 834 836 837 839 840 842 843 844 846 847 849 850 851 852 853 854 856 857 858 859 860 860 861 862 862 863 863 863 864 864 865 866 867 868
814 817 819 822 824 826 829 830 832 834 835 837 839 840 842 843 844 846 847 849 849 851 852 853 855 856 857 858 859 859 860 861 862 862 863 863 863 864 864 865 866 867
812 814 817 819 822 824 826 828 829 831 833 835 837 838 840 841 842 844 845 847 848 849 851 852 853 854 856 857 858 858 859 860 861 862 862 862 863 863 864 865 865 866
809 812 815 817 820 822 824 825 827 829 831 833 835 836 838 839 841 842 843 845 846 848 849 850 851 853 854 855 856 857 858 859 860 861 861 862 862 863 863 864 864 865
807 809 812 815 818 820 821 823 825 827 829 831 832 834 836 837 838 840 842 843 845 846 847 849 850 851 853 854 855 856 857 858 859 860 860 861 861 862 862 863 863 864
804 807 810 813 815 817 818 820 822 824 826 828 830 832 833 835 836 838 840 841 843 844 845 847 848 849 851 852 853 854 855 856 857 858 859 860 860 860 861 862 862 862
802 804 807 810 812 814 816 818 820 822 824 826 827 829 831 832 834 836 837 839 840 842 843 845 846 847 849 850 851 852 853 854 855 856 857 858 858 859 860 860 861 861
799 802 804 806 809 811 813 815 817 819 822 823 825 827 829 830 832 833 835 836 838 839 840 842 843 845 846 847 849 850 851 852 853 854 855 856 857 857 858 859 859 859
795 798 800 802 805 807 809 812 815 817 819 821 822 824 826 828 830 831 832 833 835 836 838 839 840 842 843 844 846 847 848 850 851 852 852 853 854 855 856 857 857 857
791 794 796 798 801 804 806 809 812 814 816 818 820 822 823 825 827 828 830 831 832 833 835 836 837 839 840 841 843 844 846 847 848 849 850 851 852 853 854 855 855 856
788 791 793 795 798 801 803 806 808 811 813 815 817 819 820 822 824 825 827 828 829 830 832 833 834 836 837 838 840 841 843 844 845 846 847 848 849 850 851 852 853 853
785 788 790 793 795 797 800 802 804 807 810 812 814 815 817 819 820 822 824 825 826 827 829 830 831 832 833 835 836 838 839 841 842 843 844 845 846 847 848 849 850 850
783 785 787 790 792 794 796 798 801 803 806 808 810 812 813 815 817 819 820 822 823 824 825 827 827 828 830 831 833 834 836 837 839 840 841 842 843 844 845 845 846 847
780 782 784 786 788 790 792 794 797 800 802 805 807 808 810 812 814 815 816 818 819 821 822 823 823 824 826 828 829 831 832 834 835 836 837 839 840 841 841 842 843 844
777 779 781 783 785 787 789 791 794 797 799 801 803 805 807 808 810 811 812 814 816 817 818 819 819 821 822 824 825 827 829 830 832 833 834 835 836 837 838 839 839 841
773 776 778 780 782 784 786 789 791 793 795 797 798 801 803 804 805 806 808 810 812 813 814 815 815 817 818 820 821 823 825 827 828 830 831 832 833 834 835 836 836 837
769 771 773 776 778 781 783 786 788 789 791 793 795 797 799 800 801 802 803 805 807 808 809 810 811 813 814 816 817 819 821 823 825 826 827 828 829 830 831 832 833 834
764 767 769 772 774 777 780 782 784 786 788 790 792 793 794 795 796 798 799 800 802 804 805 806 807 808 810 812 813 815 816 819 821 823 824 825 826 827 828 829 830 831
761 763 766 769 772 774 776 778 780 782 784 786 788 789 791 792 793 793 794 796 798 800 801 802 802 804 806 807 809 811 813 815 817 819 820 822 822 823 824 825 826 827
762 762 762 765 768 771 773 775 776 778 780 782 784 785 787 788 788 789 790 792 793 795 796 797 798 799 801 803 804 807 809 811 813 815 816 817 818 819 820 821 822 823
763 763 762 763 764 766 769 771 772 774 775 777 779 780 781 783 784 785 786 787 788 789 790 791 792 794 797 799 800 802 804 806 808 810 812 813 814 815 816 817 817 818
758 761 762 761 761 763 765 766 768 769 770 772 774 775 777 778 780 781 781 782 783 784 785 787 788 790 792 794 795 798 800 802 804 806 808 809 810 811 812 812 813 814
748 754 757 757 758 760 762 763 764 765 766 768 769 771 773 774 775 776 777 777 779 780 781 782 783 785 787 788 790 793 795 798 800 802 803 805 806 807 808 808 809 809